Starlink 31267

operational
NORAD ID: 59468 Int'l Des: 2024-068 Owner: SPXS Country: US Constellation: starlink
LEOCIRCULAR

Über Starlink 31267

Beschreibung wird geladen...

Live-Position

3D-Globus wird geladen...

Nächste Überflüge

Höhenverlauf

Altitude vs Time

uPlot chart will show altitude changes over time

Zweizeiliger Elementsatz

1 59468U 24068P 25304.69695576 .00002784 00000-0 11062-3 0 9993
2 59468 43.0015 38.7794 0000873 276.3406 83.7346 15.27584530 88840
Epoch: 31. Okt. 2025 • Age: 19 hours

Aktueller Status

Höhe 486.6 km
Geschwindigkeit 7.62 km/s
Subsatellitenpunkt -18.62°S, 160.75°E
Startdatum 10. Apr. 2024
Alter 1.5 years
Typ internet

Technische Details

Klassifizierung Payload
Masse 730.00 kg
Trockenmasse 700.00 kg
Gesamtmasse 730.00 kg
Länge 0.30 m
Durchmesser 4.10 m
Spannweite 29.00 m
Form Box + pan
Hersteller SPXS
Bus-Typ Starlink V2M
Phasenstatus In Orbit
Besitzer/Staat SPXS/US

Große Konstellationen

Loading constellations...